This is the latest recevied weather packets stored in our database for station/object HS2XQB-3. If no packets are shown the sender has not sent any weather packets the latest 10 day(s).
| Time | Temp. | Humidity | Pressure | Rain* | Wind** | Luminosity | Snow |
|---|---|---|---|---|---|---|---|
| 1788086314 | 35° C | 60% | 1003 hPa | - | - | 0 W/m² | - |
| 1788084492 | 36.11° C | 56% | 1002 hPa | - | - | 0 W/m² | - |
| 1788082670 | 36.67° C | 53% | 1002 hPa | - | - | 0 W/m² | - |
| 1788080848 | 37.22° C | 51% | 1002 hPa | - | - | 0 W/m² | - |
| 1788079026 | 37.22° C | 52% | 1002 hPa | - | - | 0 W/m² | - |
| 1788077204 | 37.22° C | 48% | 1003 hPa | - | - | 0 W/m² | - |
| 1788075382 | 38.33° C | 47% | 1003 hPa | - | - | 0 W/m² | - |
| 1788073560 | 38.89° C | 46% | 1003 hPa | - | - | 0 W/m² | - |
| 1788071738 | 39.44° C | 45% | 1004 hPa | - | - | 0 W/m² | - |
| 1788069916 | 38.33° C | 48% | 1004 hPa | - | - | 0 W/m² | - |
| 1788068093 | 37.78° C | 51% | 1004 hPa | - | - | 0 W/m² | - |
| 1788064449 | 37.78° C | 52% | 1005 hPa | - | - | 0 W/m² | - |
| 1788062627 | 37.22° C | 55% | 1005 hPa | - | - | 0 W/m² | - |
| 1788060805 | 37.22° C | 55% | 1005 hPa | - | - | 0 W/m² | - |
| 1788058983 | 37.22° C | 54% | 1006 hPa | - | - | 0 W/m² | - |
| 1788057161 | 36.67° C | 60% | 1005 hPa | - | - | 0 W/m² | - |
| 1788055339 | 35.56° C | 64% | 1005 hPa | - | - | 0 W/m² | - |
| 1788053517 | 35° C | 67% | 1005 hPa | - | - | 0 W/m² | - |
| 1788051694 | 32.78° C | 73% | 1005 hPa | - | - | 0 W/m² | - |
| 1788051626 | 32.22° C | 74% | 1005 hPa | - | - | 0 W/m² | - |
| 1788049804 | 31.11° C | 76% | 1005 hPa | - | - | 0 W/m² | - |
| 1788047981 | 30° C | 80% | 1004 hPa | - | - | 0 W/m² | - |
| 1788046159 | 29.44° C | 80% | 1004 hPa | - | - | 0 W/m² | - |
| 1788044337 | 29.44° C | 80% | 1004 hPa | - | - | 0 W/m² | - |
| 1788042515 | 29.44° C | 79% | 1004 hPa | - | - | 0 W/m² | - |
* Rain since midnight (hover to see other rain measurements)
** Current wind speed in m/s (hover to see current wind gust speed)